Location: Agendoh
(31.0664°N, 8.9343°W)
Time: 07:11:48
(UTC+00:00)

SL-4 R/B - Pass Details

Date: 06 December 2021
Orbit: 427 x 660 km, 51.6° (Epoch: 24 January)

Event Time Altitude Azimuth Distance (km) Brightness Sun altitude
Exits shadow 06:16:04 - 221° (SW) 2,403 5.1 -13.6°
Rises 06:16:08 0° 221° (SW) 2,376 5.0 -13.6°
Reaches altitude 10° 06:18:12 10° 219° (SW) 1,525 4.1 -13.1°
Maximum altitude 06:21:36 78° 133° (SE) 456 1.7 -12.4°
Drops below altitude 10° 06:25:11 10° 47° (NE) 1,608 4.8 -11.7°
Sets 06:27:24 0° 46° (NE) 2,521 5.8 -11.3°
